This is the latest recevied weather packets stored in our database for station/object N8QQQ. If no packets are shown the sender has not sent any weather packets the latest 10 day(s).
| Time | Temp. | Humidity | Pressure | Rain* | Wind** | Luminosity | Snow |
|---|---|---|---|---|---|---|---|
| 1778158734 | 2.22° C | 78% | 1010.9 hPa | 0 mm | - | 30 W/m² | - |
| 1778158431 | 2.22° C | 77% | 1010.8 hPa | 0 mm | - | 27 W/m² | - |
| 1778158129 | 2.22° C | 77% | 1011 hPa | 0 mm | - | 26 W/m² | - |
| 1778157824 | 2.22° C | 77% | 1010.8 hPa | 0 mm | - | 24 W/m² | - |
| 1778157524 | 1.67° C | 77% | 1010.8 hPa | 0 mm | - | 20 W/m² | - |
| 1778157220 | 1.67° C | 77% | 1010.9 hPa | 0 mm | - | 21 W/m² | - |
| 1778156917 | 1.67° C | 77% | 1010.9 hPa | 0 mm | - | 23 W/m² | - |
| 1778156612 | 1.67° C | 78% | 1010.9 hPa | 0 mm | - | 22 W/m² | - |
| 1778156309 | 1.67° C | 79% | 1010.7 hPa | 0 mm | - | 22 W/m² | - |
| 1778156004 | 1.67° C | 79% | 1010.7 hPa | 0 mm | - | 24 W/m² | - |
| 1778155701 | 1.67° C | 80% | 1010.7 hPa | 0 mm | - | 23 W/m² | - |
| 1778155397 | 1.67° C | 80% | 1010.6 hPa | 0 mm | - | 24 W/m² | - |
| 1778155093 | 1.11° C | 82% | 1010.7 hPa | 0 mm | - | 22 W/m² | - |
| 1778154789 | 1.11° C | 83% | 1010.8 hPa | 0 mm | - | 20 W/m² | - |
| 1778154485 | 0.56° C | 85% | 1010.7 hPa | 0 mm | - | 19 W/m² | - |
| 1778154183 | 0.56° C | 85% | 1010.6 hPa | 0 mm | - | 16 W/m² | - |
| 1778153880 | 0.56° C | 85% | 1010.6 hPa | 0 mm | - | 14 W/m² | - |
| 1778153577 | 0° C | 88% | 1010.7 hPa | 0 mm | - | 12 W/m² | - |
| 1778153274 | 0° C | 88% | 1010.6 hPa | 0 mm | - | 10 W/m² | - |
| 1778152971 | 0° C | 90% | 1010.6 hPa | 0 mm | - | 9 W/m² | - |
| 1778152669 | -0.56° C | 91% | 1010.5 hPa | 0 mm | - | 7 W/m² | - |
| 1778152365 | -0.56° C | 93% | 1010.5 hPa | 0 mm | - | 4 W/m² | - |
| 1778152061 | -0.56° C | 93% | 1010.5 hPa | 0 mm | - | 3 W/m² | - |
| 1778151758 | -1.11° C | 93% | 1010.6 hPa | 0 mm | - | 3 W/m² | - |
| 1778151455 | -1.11° C | 92% | 1010.4 hPa | 0 mm | - | 3 W/m² | - |
* Rain latest hour (hover to see other rain measurements)
** Current wind speed in m/s (hover to see current wind gust speed)